This demonstration page uses our WeatherBlox Daily Observations layout. Learn more.

Left ArrowRight Arrow

39.51506, -84.39828

Hourly Observations for May 20, 2022

Temp ( °F °C ) Dew Point ( °F °C ) Humidity (%) Winds ( mph kmh ) Pressure ( in mb ) Visibility ( mi km ) Precip ( " mm )
12:15 am 00:15 Clear 65 18.1 63 17.3 95 95 S 6 9 29.67 1005 10 16 0.00 0.00
12:35 am 00:35 Clear 65 18.4 63 17.3 93 93 S 7 11 29.66 1004 10 16 0.00 0.00
12:55 am 00:55 Clear 65 18.4 63 17.2 93 93 S 5 7 29.65 1004 10 16 0.00 0.00
1:15 am 01:15 Partly Cloudy 64 17.9 63 17.4 97 97 ESE 3 6 29.64 1004 10 16 0.00 0.00
1:35 am 01:35 Partly Cloudy 64 17.9 64 17.5 98 98 S 5 7 29.65 1004 10 16 0.00 0.00
1:55 am 01:55 Clear 64 17.6 63 17.3 98 98 S 3 6 29.63 1003 10 16 0.00 0.00
2:15 am 02:15 Clear 66 19 62 16.8 87 87 SSE 9 15 29.64 1004 10 16 0.00 0.00
2:35 am 02:35 Partly Cloudy 66 19.1 63 17.2 89 89 S 10 17 29.63 1003 10 16 0.00 0.00
2:55 am 02:55 Mostly Cloudy 66 19.1 64 17.5 91 91 S 10 17 29.64 1004 10 16 0.00 0.00
3:15 am 03:15 Cloudy with Heavy Rain 65 18.6 65 18.2 98 98 SW 5 7 29.66 1004 5 8 0.06 1.52
3:35 am 03:35 Cloudy 64 18 64 18 100 100 S 3 6 29.64 1004 10 16 0.09 2.29
3:55 am 03:55 Cloudy with Light Rain 64 18 N/A N/A E 5 7 29.60 1002 7 11 0.10 2.54
4:15 am 04:15 Cloudy with Light Rain 64 18 N/A N/A SW 6 9 29.62 1003 4 6 0.05 1.27
4:35 am 04:35 Cloudy with Thunderstorms 67 19.3 67 19.2 99 99 S 13 20 29.63 1003 7 11 0.07 1.78
4:55 am 04:55 Cloudy with Rain 67 19.3 67 19.2 99 99 SSW 20 31 29.63 1003 7 11 0.11 2.79
5:15 am 05:15 Cloudy with Strong Thunderstorms 66 19 N/A N/A SSW 13 20 29.64 1004 7 11 0.04 1.02
5:35 am 05:35 Cloudy with Thunderstorms 66 19 N/A N/A SW 13 20 29.65 1004 7 11 0.08 2.03
5:55 am 05:55 Cloudy with Strong Thunderstorms 66 19 N/A N/A SW 10 17 29.66 1004 7 11 0.12 3.05
6:15 am 06:15 Cloudy with Strong Thunderstorms 66 19 N/A N/A SSW 14 22 29.68 1005 3 4 0.04 1.02
6:35 am 06:35 Cloudy with Thunderstorms 64 18 N/A N/A SSW 13 20 29.70 1006 3 5 0.10 2.54
6:55 am 06:55 Cloudy 64 18 N/A N/A SSE 10 17 29.67 1005 10 16 0.16 4.06
7:15 am 07:15 Cloudy 64 18 N/A N/A S 8 13 29.68 1005 10 16 0.06 1.52
7:35 am 07:35 Cloudy 64 18 N/A N/A S 6 9 29.68 1005 10 16 0.12 3.05
7:55 am 07:55 Cloudy 66 19 N/A N/A S 6 9 29.68 1005 10 16 0.17 4.32
8:15 am 08:15 Partly Cloudy 67 19.3 67 19.2 99 99 S 6 9 29.68 1005 10 16 0.04 1.02
8:35 am 08:35 Sunny 68 19.8 67 19.4 98 98 S 7 11 29.68 1005 10 16 0.09 2.29
8:55 am 08:55 Sunny 69 20.5 68 19.8 96 96 S 10 17 29.67 1005 10 16 0.14 3.56
9:15 am 09:15 Sunny 71 21.5 68 20 91 91 S 14 22 29.67 1005 10 16 0.04 1.02
9:35 am 09:35 Sunny 72 22.1 69 20.4 90 90 S 13 20 29.68 1005 10 16 0.08 2.03
9:55 am 09:55 Sunny 73 22.7 69 20.5 87 87 S 12 19 29.69 1005 10 16 0.12 3.05
10:15 am 10:15 Sunny 75 23.7 70 20.9 84 84 SSW 13 20 29.69 1005 10 16 0.04 1.02
10:35 am 10:35 Sunny 77 25 69 20.4 76 76 SSW 16 26 29.68 1005 10 16 0.07 1.78
10:55 am 10:55 Sunny 78 25.7 68 20 71 71 SSW 18 30 29.68 1005 10 16 0.09 2.29
11:15 am 11:15 Sunny 79 25.9 68 20 70 70 SSW 22 35 29.68 1005 10 16 0.02 0.51
11:35 am 11:35 Sunny 79 26.3 69 20.4 70 70 SSW 15 24 29.69 1005 10 16 0.02 0.51
11:55 am 11:55 Sunny 80 26.7 68 20 67 67 SSW 21 33 29.69 1005 10 16 0.02 0.51
12:15 pm 12:15 Sunny 81 27.2 67 19.3 62 62 SSW 17 28 29.70 1006 10 16 0.00 0.00
12:35 pm 12:35 Sunny 81 27.2 65 18.3 58 58 SSW 24 39 29.71 1006 10 16 0.00 0.00
12:55 pm 12:55 Sunny 82 27.5 65 18.4 58 58 SSW 17 28 29.71 1006 10 16 0.00 0.00
1:15 pm 13:15 Sunny 82 27.7 64 18 56 56 SSW 18 30 29.71 1006 10 16 0.00 0.00
1:35 pm 13:35 Sunny 84 28.8 64 17.7 51 51 SSW 18 30 29.70 1006 10 16 0.00 0.00
1:55 pm 13:55 Sunny 84 28.9 62 16.6 47 47 SSW 18 30 29.69 1006 10 16 0.00 0.00
2:15 pm 14:15 Sunny 85 29.4 62 16.4 45 45 SW 21 33 29.69 1006 10 16 0.00 0.00
2:35 pm 14:35 Sunny 86 29.8 63 17 46 46 SSW 17 28 29.69 1006 10 16 0.00 0.00
2:55 pm 14:55 Sunny 86 30.1 63 17 45 45 S 20 31 29.69 1005 10 16 0.00 0.00
3:15 pm 15:15 Sunny 86 30.2 62 16.8 44 44 SSW 18 30 29.68 1005 10 16 0.00 0.00
3:35 pm 15:35 Sunny 87 30.3 62 16.6 44 44 SSW 22 35 29.68 1005 10 16 0.00 0.00
3:55 pm 15:55 Sunny 87 30.4 62 16.5 43 43 SSW 23 37 29.67 1005 10 16 0.00 0.00
4:15 pm 16:15 Sunny 87 30.5 62 16.6 43 43 SSW 22 35 29.66 1004 10 16 0.00 0.00
4:35 pm 16:35 Sunny 87 30.5 61 16.3 42 42 SSW 22 35 29.67 1005 10 16 0.00 0.00
4:55 pm 16:55 Sunny 87 30.5 61 16.1 42 42 SSW 23 37 29.67 1005 10 16 0.00 0.00
5:15 pm 17:15 Sunny 87 30.5 62 16.9 44 44 S 18 30 29.67 1005 10 16 0.00 0.00
5:35 pm 17:35 Sunny 87 30.4 63 17 45 45 S 24 39 29.68 1005 10 16 0.00 0.00
5:55 pm 17:55 Sunny 87 30.4 62 16.6 43 43 SSW 16 26 29.68 1005 10 16 0.00 0.00
6:15 pm 18:15 Sunny 87 30.3 62 16.9 45 45 S 24 39 29.69 1005 10 16 0.00 0.00
6:35 pm 18:35 Sunny 86 29.9 63 17.4 47 47 S 24 39 29.69 1005 10 16 0.00 0.00
6:55 pm 18:55 Sunny 86 29.8 63 17.2 47 47 S 21 33 29.69 1006 10 16 0.00 0.00
7:15 pm 19:15 Sunny 85 29.5 63 17.4 48 48 S 22 35 29.69 1006 10 16 0.00 0.00
7:35 pm 19:35 Sunny 84 29.1 63 17.2 49 49 SSW 18 30 29.70 1006 10 16 0.00 0.00
7:55 pm 19:55 Sunny 84 28.7 63 17.3 50 50 S 21 33 29.72 1006 10 16 0.00 0.00
8:15 pm 20:15 Sunny 83 28.1 63 17.3 52 52 S 17 28 29.72 1006 10 16 0.00 0.00
8:35 pm 20:35 Sunny 82 27.9 64 17.5 53 53 S 17 28 29.73 1007 10 16 0.00 0.00
8:55 pm 20:55 Clear 82 27.8 63 17.4 53 53 S 14 22 29.73 1007 10 16 0.00 0.00
9:15 pm 21:15 Clear 82 27.6 64 17.5 54 54 S 20 31 29.74 1007 10 16 0.00 0.00
9:35 pm 21:35 Clear 81 27.3 64 17.6 55 55 S 13 20 29.75 1007 10 16 0.00 0.00
9:55 pm 21:55 Clear 81 27.3 64 17.6 55 55 S 13 20 29.76 1008 10 16 0.00 0.00
10:15 pm 22:15 Clear 80 26.9 64 17.7 57 57 S 15 24 29.77 1008 10 16 0.00 0.00
10:35 pm 22:35 Clear 80 26.5 64 17.8 59 59 S 14 22 29.78 1008 10 16 0.00 0.00
10:55 pm 22:55 Clear 80 26.4 64 17.6 59 59 S 12 19 29.79 1009 10 16 0.00 0.00
11:15 pm 23:15 Clear 79 25.9 64 17.7 61 61 S 13 20 29.80 1009 10 16 0.00 0.00
11:35 pm 23:35 Clear 78 25.6 64 17.8 62 62 S 10 17 29.81 1010 10 16 0.00 0.00
11:55 pm 23:55 Clear 78 25.3 64 17.7 63 63 S 12 19 29.82 1010 10 16 0.00 0.00

Powered by AerisWeather